x

Ilm3 - 27 Miles Se Of Wrightsville Beach, Nc (41037) Weather Station

1:08 - Thu 25th May 2017 All times are EDT. -4 hours from GMT.

  • Wind
    25mph, 34mph gusts
  • Sea Temp 75°f
  • Ar Temp 75°f
  • Sea Pressure 1000.7mb
  • Ilm3 - 27 Miles Se Of Wrightsville Beach, Nc
  • Ilm3 - 27 Miles Se Of Wrightsville Beach, Nc

More Historic Weather Station data

Upgrade to MSW Pro to gain access to the past 30 days of data for over 8000 Wavebouys and Weather Stations around the globe.

Join Pro

Comparision Forecast

View Surf forecast
   
Qui 05/25 1:08 25 34 mph 1000.7mb 75f 75f
12:08 25 34 mph 1001.9mb 75f 74f
Qua 05/24 11:08 25 31 mph 1002.8mb 75f 74f
10:08 22 29 mph 1003.1mb 75f 73f
9:08 22 27 mph 1003.6mb 75f 73f
8:08 20 29 mph 1003.9mb 75f 72f
7:08 20 29 mph 1003.9mb 76f 74f
6:08 22 31 mph 1004.6mb 76f 73f
5:08 18 25 mph 1003.8mb 76f 76f
4:08 16 22 mph 1003.6mb 76f 76f
3:08 16 22 mph 1004.7mb 76f 76f
2:08 16 22 mph 1005mb 76f 76f
1:08 11 16 mph 1005.4mb 75f 76f
12:08 16 22 mph 1005.6mb 75f 75f
11:08 13 20 mph 1005.4mb 75f 76f
10:08 11 18 mph 1005mb 75f 74f
9:08 16 22 mph 1005.5mb 75f 74f
8:08 13 20 mph 1005.2mb 75f 73f
7:08 18 25 mph 1004.4mb 75f 72f
6:08 13 22 mph 1003.7mb 75f 73f
5:08 16 22 mph 1004.2mb 75f 74f
4:08 18 27 mph 1004mb 75f 74f
3:08 13 22 mph 1003.6mb 75f 75f
2:08 16 20 mph 1004mb 75f 74f
1:08 22 31 mph 1005mb 75f 73f
12:08 20 27 mph 1005.2mb 75f 71f
Ter 05/23 11:08 16 22 mph 1005.8mb 75f 72f
10:08 16 25 mph 1006.9mb 75f 73f
9:08 20 29 mph 1006.8mb 75f 74f
8:08 18 25 mph 1007.2mb 75f 75f
7:08 22 29 mph 1006.6mb 75f 75f
6:08 20 27 mph 1006.7mb 75f 75f
5:08 20 27 mph 1007mb 75f 76f
4:08 13 18 mph 1007.2mb 75f 75f
3:08 13 20 mph 1007.1mb 75f 75f
2:08 13 20 mph 1008mb 75f 75f
1:08 18 25 mph 1009.1mb 75f 73f
12:08 22 31 mph 1010.5mb 75f 73f
11:08 25 36 mph 1010mb 75f 74f
10:08 20 27 mph 1010.1mb 75f 74f
9:08 20 27 mph 1011mb 75f 74f
8:08 18 22 mph 1011.4mb 75f 73f
7:08 18 25 mph 1011.3mb 76f 72f
6:08 16 22 mph - 76f 71f
5:08 13 20 mph - 76f 72f
4:08 16 22 mph 1031.6mb 76f 72f
3:08 7 11 mph 1031.5mb 76f 72f
2:08 4 9 mph 1028.2mb 76f 71f
1:08 2 7 mph 1026mb 76f 70f
12:08 4 9 mph 1024.4mb 76f 69f
Seg 05/22 11:08 16 22 mph 1015.2mb 76f 70f
10:08 13 22 mph 1015.4mb 76f 74f
9:08 13 18 mph 1015mb 76f 76f
8:08 13 18 mph 1015.6mb 76f 76f
7:08 16 22 mph 1014.6mb 76f 76f
6:08 16 20 mph 1014.1mb 76f 76f
5:08 13 18 mph 1013.8mb 76f 76f
4:08 16 20 mph 1014.9mb 76f 76f
3:08 13 22 mph 1015.8mb 76f 76f
2:08 16 22 mph 1016.4mb 76f 76f
1:08 13 20 mph 1016.9mb 76f 76f
12:08 13 20 mph 1017.6mb 76f 76f
11:08 13 18 mph 1018.4mb 75f 76f
10:08 13 18 mph 1018.4mb 75f 76f
9:08 13 20 mph 1018.5mb 75f 76f
8:08 13 20 mph 1018.4mb 75f 76f
7:08 13 18 mph 1018.2mb 75f 75f
6:08 13 18 mph 1017.9mb 75f 75f
5:08 9 16 mph 1017.6mb 75f 75f
4:08 2 4 mph 1017.8mb 75f 73f
3:08 2 4 mph 1017.7mb 75f 73f
2:08 2 7 mph 1018.3mb 75f 72f
1:08 4 11 mph 1019.2mb 75f 71f
12:08 11 16 mph 1019.7mb 75f 73f
Dom 05/21 11:08 13 20 mph 1020mb 75f 73f
10:08 11 18 mph 1020.2mb 75f 73f
9:08 11 16 mph 1020mb 76f 73f
8:08 13 18 mph 1020.7mb 76f 73f
7:08 11 18 mph 1020.4mb 75f 73f
6:08 16 25 mph 1019mb 76f 73f
5:08 13 20 mph 1019.6mb 76f 73f
4:08 11 16 mph 1020.2mb 76f 73f
3:08 11 18 mph 1021.7mb 76f 73f
2:08 11 16 mph 1021.9mb 76f 72f
1:08 13 20 mph 1021.9mb 76f 72f
12:08 16 20 mph 1022.4mb 76f 72f
11:08 13 20 mph 1022.4mb 76f 72f
10:08 16 20 mph 1022.4mb 76f 72f
9:08 16 22 mph 1022.4mb 76f 72f
8:08 13 20 mph 1022.1mb 76f 73f
7:08 13 18 mph 1021.7mb 76f 73f